Probability
0 0 0 0 0 0 0 0 0 0 0 0 0 0 0 0 0 0 0 0 0 0 0 0 0 0 0 0 0 0 0 0 0 0 0 0 0 0 0 0 0 0 0
0 0 0 0 0 0 0 0 0 0 0 0 0 0 0 0 0 0 0 0 0 0 0 0 0 0 0 0 0 0 0 0 0 0 0 0 0 0 0 0 0 0 0
0 0 0 0 0 0 0 0 0 0 0 0 0 0 0 0 0 0 0 0 0 0 0 0 0 0 0 0 0 0 0 0 0 0 0 0 0 0 0 0 0 0 0
0 0 0 0 0 0 0 0 0 0 0 0 0 0 0 0 0 0 0 0 0 0 0 0 0 0 0 0 0 0 0 0 0 0 0 0 0 0 0 0 0 0 0
0 0 0 0 0 0 0 0 0 0 0 0 0 0 0 0 0 0 0 0 0 0 0 0 0 0 0 0 0 0 0 0 0 0 0 0 0 0 0 0 0 0 0
0 0 0 0 0 0 0 0 0 0 0 0 0 0 0 0 0 0 0 0 0 0 0 0 0 0 0 0 0 0 0 0 0 0 0 0 0 0 0 0 0 0 0
0 0 0 0 0 0 0 0 0 0 0 0 0 0 0 0 0 0 0 0 0 0 0 0 0 0 0 0 0 0 0 0 0 0 0 0 0 0 0 0 0 0 0
0 0 0 0 0 0 0 0 0 0 0 0 0 0 0 0 0 0 0 0 0 0 0 0 0 0 0 0 0 0 0 0 0 0 0 0 0 0 0 0 0 0 0
0 0 0 0 0 0 0 0 0 0 0 0 0 0 0 0 0 0 0 0 0 0 0 0 0 0 0 0 0 0 0 0 0 0 0 0 0 0 0 0 0 0 0
0 0 0 0 0 0 0 0 0 0 0 0 0 0 0 0 0 0 0 0 0 0 0 0 0 0 0 0 0 0 0 0 0 0 0 0 0 0 0 0 0 0 0
0 0 0 0 0 0 0 0 0 0 0 0 0 0 0 0 0 0 0 0 0 0 0 0 0 0 0 0 0 0 0 0 0 0 0 0 0 0 0 0 0 0 0
0 0 0 0 0 0 0 0 0 0 0 0 0 0 0 0 0 0 0 0 0 0 0 0 0 0 0 0 0 0 0 0 0 0 0 0 0 0 0 0 0 0 0
0 0 0 0 0 0 0 0 0 0 0 0 0 0 0 0 0 0 0 0 0 0 0 0 0 0 0 0 0 0 0 0 0 0 0 0 0 0 0 0 0 0 0
0 0 0 0 0 0 0 0 0 0 0 0 0 0 0 0 0 0 0 0 0 0 0 0 0 0 0 0 0 0 0 0 0 0 0 0 0 0 0 0 0 0 0
0 0 0 0 0 0 0 0 0 0 0 0 0 0 0 0 0 0 0 0 0 0 0 0 0 0 0 0 0 0 0 0 0 0 0 0 0 0 0 0 0 0 0
0 0 0 0 0 0 0 0 0 0 0 0 0 0 0 0 0 0 0 0 0 0 0 0 0 0 0 0 0 0 0 0 0 0 0 0 0 0 0 0 0 0 0
0 0 0 0 0 0 0 0 0 0 0 0 0 0 0 0 0 0 0 0 0 0 0 0 0 0 0 0 0 0 0 0 0 0 0 0 0 0 0 0 0 0 0
0 0 0 0 0 0 0 0 0 0 0 0 0 0 0 0 0 0 0 0 0 0 0 0 0 0 0 0 0 0 0 0 0 0 0 0 0 0 0 0 0 0 0
0 0 0 0 0 0 0 0 0 0 0 0 0 0 0 0 0 0 0 0 0 0 0 0 0 0 0 0 0 0 0 0 0 0 0 0 0 0 0 0 0 0 0
0 0 0 0 0 0 0 0 0 0 0 0 0 0 0 0 0 0 0 0 0 0 0 0 0 0 0 0 0 0 0 0 0 0 0 0 0 0 0 0 0 0 0
0 0 0 0 0 0 0 0 0 0 0 0 0 0 0 0 0 0 0 0 0 0 0 0 0 0 0 0 0 0 0 0 0 0 0 0 0 0 0 0 0 0 0
0 0 0 0 0 0 0 0 0 0 0 0 0 0 0 0 0 0 0 0 0 0 0 0 0 0 0 0 0 0 0 0 0 0 0 0 0 0 0 0 0 0 0
0 0 0 0 0 0 0 0 0 0 0 0 0 0 0 0 0 0 0 0 0 0 0 0 0 0 0 0 0 0 0 0 0 0 0 0 0 0 0 0 0 0 0
0 0 0 0 0 0 0 0 0 0 0 0 0 0 0 0 0 0 0 0 0 0 0 0 0 0 0 0 0 0 0 0 0 0 0 0 0 0 0 0 0 0 0
0 0 0 0 0 0 0 0 0 0 0 0 0 0 0 0 0 0 0 0 0 0 0 0 0 0 0 0 0 0 0 0 0 0 0 0 0 0 0 0 0 0 0
0 0 0 0 0 0 0 0 0 0 0 0 0 0 0 0 0 0 0 0 0 0 0 0 0 0 0 0 0 0 0 0 0 0 0 0 0 0 0 0 0 0 0
Height
5703 5704 5706 5707 5707 5708 5708 5709 5708 5708 5708 5707 5706 5706 5705 5703 5702 5700 5699 5696 5694 5691 5689 5686 5682 5679 5675 5671 5667 5663 5659 5655 5651 5647 5641 5636 5631 5626 5620 5615 5610 5605 5599
5693 5695 5697 5698 5699 5699 5700 5700 5700 5700 5699 5699 5698 5698 5697 5695 5694 5692 5690 5688 5686 5683 5680 5677 5673 5670 5666 5662 5657 5653 5648 5644 5639 5635 5630 5624 5618 5613 5607 5602 5596 5590 5583
5685 5686 5688 5689 5690 5691 5691 5691 5691 5691 5691 5691 5690 5689 5688 5687 5686 5684 5682 5680 5677 5674 5671 5668 5664 5660 5656 5652 5647 5642 5637 5632 5627 5622 5617 5611 5606 5599 5593 5587 5581 5574 5567
5676 5678 5680 5681 5682 5683 5683 5683 5683 5683 5683 5683 5682 5681 5680 5679 5677 5675 5673 5671 5668 5665 5662 5658 5654 5650 5646 5642 5637 5631 5626 5621 5615 5610 5604 5598 5591 5584 5578 5571 5565 5558 5550
5668 5670 5672 5673 5674 5674 5675 5675 5675 5675 5675 5675 5674 5673 5672 5671 5669 5667 5664 5662 5659 5656 5652 5648 5644 5640 5636 5631 5626 5620 5614 5609 5602 5596 5590 5584 5577 5569 5562 5554 5548 5541 5534
5660 5662 5663 5665 5666 5666 5667 5667 5667 5667 5667 5667 5666 5665 5664 5662 5661 5658 5656 5653 5650 5646 5643 5638 5634 5630 5625 5619 5614 5608 5602 5596 5589 5583 5576 5569 5561 5553 5545 5537 5530 5523 5517
5652 5654 5656 5657 5658 5659 5659 5659 5660 5659 5659 5659 5658 5657 5656 5654 5652 5649 5647 5644 5640 5637 5633 5628 5624 5619 5613 5608 5602 5596 5589 5582 5575 5568 5561 5553 5545 5536 5528 5521 5512 5503 5496
5645 5646 5648 5649 5650 5651 5651 5652 5652 5652 5651 5651 5650 5649 5647 5645 5643 5640 5637 5634 5631 5627 5622 5618 5613 5608 5602 5597 5591 5584 5576 5569 5561 5554 5546 5537 5527 5518 5509 5501 5493 5485 5478
5637 5639 5640 5642 5643 5643 5644 5644 5644 5644 5643 5643 5641 5640 5638 5636 5634 5631 5628 5624 5621 5616 5612 5607 5602 5597 5591 5585 5579 5572 5564 5555 5546 5538 5529 5520 5510 5501 5491 5482 5474 5465 5459
5630 5631 5633 5634 5635 5636 5636 5636 5636 5636 5635 5634 5633 5631 5629 5627 5624 5622 5618 5615 5611 5606 5601 5596 5591 5585 5578 5571 5564 5557 5550 5541 5533 5523 5514 5504 5494 5484 5474 5464 5455 5446 5438
5623 5624 5626 5627 5628 5628 5629 5629 5628 5628 5627 5626 5624 5622 5620 5618 5615 5612 5608 5604 5600 5595 5590 5585 5579 5572 5566 5558 5551 5543 5534 5526 5517 5508 5498 5488 5478 5468 5457 5447 5438 5430 5422
5616 5617 5618 5619 5620 5621 5621 5620 5620 5619 5618 5617 5615 5613 5611 5608 5605 5602 5598 5594 5590 5585 5579 5573 5567 5560 5553 5545 5537 5528 5519 5510 5500 5491 5482 5472 5462 5452 5442 5433 5424 5416 5408
5608 5610 5611 5612 5612 5613 5613 5612 5612 5611 5610 5608 5606 5604 5601 5598 5595 5592 5588 5583 5579 5574 5568 5561 5554 5547 5539 5531 5522 5513 5504 5494 5485 5475 5466 5456 5446 5437 5428 5420 5411 5403 5396
5601 5602 5603 5604 5605 5605 5605 5604 5604 5602 5601 5599 5597 5595 5592 5589 5585 5581 5577 5573 5568 5562 5556 5549 5542 5534 5526 5517 5508 5499 5489 5479 5469 5460 5451 5442 5432 5424 5415 5407 5399 5391 5384
5593 5595 5596 5596 5597 5597 5597 5596 5595 5594 5592 5590 5588 5585 5582 5579 5575 5571 5567 5562 5556 5550 5543 5536 5529 5521 5512 5503 5493 5484 5474 5464 5455 5445 5436 5428 5419 5411 5403 5395 5387 5380 5374
5586 5587 5588 5589 5589 5589 5588 5587 5586 5585 5583 5581 5578 5576 5572 5569 5565 5561 5556 5550 5544 5538 5531 5524 5516 5507 5498 5489 5479 5469 5459 5450 5441 5432 5423 5415 5407 5399 5391 5384 5377 5370 5364
5578 5579 5580 5580 5580 5580 5580 5579 5577 5576 5574 5571 5569 5566 5562 5558 5554 5550 5544 5539 5532 5525 5518 5510 5502 5493 5484 5474 5465 5455 5446 5437 5428 5419 5411 5403 5396 5389 5381 5375 5368 5362 5356
5570 5571 5572 5572 5572 5572 5571 5570 5568 5566 5564 5562 5559 5556 5552 5548 5544 5538 5533 5527 5520 5513 5505 5497 5488 5479 5469 5460 5450 5441 5432 5423 5415 5407 5400 5393 5385 5379 5372 5365 5359 5354 5349
5562 5563 5563 5564 5563 5563 5562 5561 5559 5557 5555 5552 5549 5546 5542 5537 5533 5527 5521 5515 5508 5500 5492 5483 5474 5465 5455 5446 5436 5427 5419 5411 5403 5396 5389 5382 5376 5369 5363 5356 5351 5346 5342
5554 5554 5555 5555 5555 5554 5553 5552 5550 5548 5545 5542 5539 5536 5531 5527 5522 5516 5510 5503 5495 5487 5479 5470 5461 5451 5442 5433 5424 5415 5407 5399 5392 5386 5379 5373 5366 5360 5354 5349 5344 5340 5336
5545 5546 5546 5546 5546 5545 5544 5543 5541 5538 5536 5532 5529 5525 5521 5516 5510 5504 5498 5490 5483 5474 5466 5456 5447 5438 5429 5421 5412 5404 5396 5389 5383 5376 5370 5364 5358 5353 5348 5343 5338 5334 5331
5537 5538 5538 5538 5537 5536 5535 5533 5531 5529 5526 5522 5519 5514 5510 5504 5499 5492 5485 5478 5469 5461 5452 5443 5435 5426 5418 5409 5401 5394 5387 5380 5374 5368 5362 5357 5352 5347 5342 5337 5333 5330 5327
5529 5529 5529 5529 5528 5527 5526 5524 5521 5519 5516 5512 5508 5503 5498 5493 5487 5480 5472 5465 5456 5447 5439 5431 5422 5414 5406 5399 5391 5384 5378 5372 5367 5361 5356 5351 5346 5341 5337 5333 5330 5327 5324
5521 5521 5521 5520 5519 5518 5516 5514 5512 5509 5505 5501 5497 5492 5487 5481 5474 5467 5459 5451 5443 5434 5426 5418 5411 5403 5396 5389 5382 5376 5370 5365 5360 5355 5350 5345 5341 5337 5333 5330 5327 5325 5323
5513 5513 5512 5512 5510 5509 5507 5504 5502 5498 5495 5490 5486 5480 5475 5468 5461 5454 5446 5438 5430 5422 5414 5407 5400 5393 5386 5380 5374 5369 5363 5358 5354 5349 5345 5340 5336 5333 5330 5327 5325 5323 5321
5504 5504 5504 5502 5501 5499 5497 5494 5491 5488 5483 5479 5474 5468 5462 5456 5448 5441 5433 5425 5417 5410 5403 5396 5389 5383 5377 5372 5366 5361 5356 5352 5347 5343 5339 5336 5332 5329 5326 5324 5322 5321 5320
Wind_Speed
37 37 37 37 36 36 36 37 37 36 36 36 35 35 36 36 36 37 38 38 39 39 40 41 42 43 44 45 46 47 48 48 48 48 49 50 51 52 52 53 54 55 56
36 35 35 35 35 35 35 35 35 35 34 34 34 35 35 35 36 37 38 38 39 40 41 41 42 44 45 46 47 48 49 50 50 50 51 52 53 54 55 56 57 58 60
34 34 34 33 34 34 34 33 33 33 33 33 33 33 34 35 36 37 38 39 39 40 41 42 43 44 45 47 48 49 51 51 52 52 53 54 56 57 58 59 61 62 63
33 33 32 32 32 32 31 32 32 32 32 32 32 32 33 34 35 37 38 39 40 41 41 43 44 45 46 48 49 50 51 52 53 54 56 57 58 60 62 63 63 64 64
31 31 30 30 30 30 30 30 30 30 31 31 31 32 33 34 35 36 37 39 40 41 42 44 45 46 47 49 50 51 53 54 55 57 58 60 62 63 64 65 65 65 66
29 29 29 29 29 29 29 29 29 30 30 31 31 32 33 34 35 36 38 39 40 41 43 44 46 47 48 50 51 53 54 56 58 59 61 63 64 65 66 67 68 69 69
28 28 28 28 28 28 28 28 29 29 30 30 31 32 33 34 35 37 38 40 41 42 43 45 47 48 49 51 52 54 56 58 60 62 63 65 66 67 69 69 70 71 71
28 28 28 27 27 27 28 28 29 29 30 31 32 33 34 35 37 38 39 41 42 43 45 46 47 49 50 52 54 56 58 60 62 64 66 68 69 70 71 72 72 72 72
28 28 27 27 27 27 28 28 29 30 30 31 32 33 35 36 37 38 40 41 42 44 45 47 48 50 52 54 56 58 60 62 64 66 68 69 70 72 72 73 73 73 71
28 27 27 27 27 27 27 28 29 30 31 32 32 34 35 36 37 39 40 41 43 44 46 47 49 51 53 56 58 59 61 63 66 68 69 70 71 72 72 72 72 70 67
28 27 27 27 27 27 28 29 29 30 31 32 33 34 35 37 38 39 40 41 43 45 46 48 50 52 55 57 59 61 63 65 67 69 70 71 71 71 70 69 67 65 62
28 28 28 28 27 28 29 29 30 31 32 32 33 34 36 37 38 39 41 42 44 45 47 49 51 53 56 58 60 62 64 66 68 68 69 69 68 67 65 64 62 60 58
28 28 28 28 28 28 29 29 30 31 32 33 34 35 36 37 39 40 41 43 45 46 48 51 53 54 57 59 61 63 65 67 67 67 66 66 64 62 61 60 59 57 55
28 28 28 28 28 29 29 30 30 31 32 33 34 35 36 37 39 40 42 44 45 47 50 52 53 56 58 60 62 64 66 66 65 65 64 62 60 59 58 57 55 53 50
28 28 28 29 29 29 29 30 31 32 32 33 35 36 37 38 39 40 43 44 46 49 51 53 55 57 59 61 63 65 65 64 64 63 61 59 58 56 54 52 50 48 45
28 28 29 29 29 29 30 31 31 32 33 34 35 36 37 38 39 41 43 45 48 50 52 54 56 58 60 62 63 63 63 62 61 60 58 56 54 51 49 48 46 44 41
28 28 28 29 29 30 30 31 32 33 34 35 36 36 37 39 41 43 45 47 49 51 53 55 58 60 61 62 62 62 61 60 59 57 54 52 50 48 47 45 43 41 38
28 28 28 29 29 30 30 31 32 33 34 35 36 37 39 40 42 44 46 48 50 53 55 57 59 60 61 61 61 61 59 57 55 52 50 48 47 46 45 43 40 37 34
28 28 28 29 29 30 31 32 33 33 34 36 37 38 40 41 42 44 47 49 52 54 56 58 59 60 60 60 60 58 56 53 51 49 47 46 45 44 41 38 35 33 31
28 28 28 29 29 30 31 32 32 33 35 36 37 38 39 41 43 46 49 51 54 55 57 58 59 59 58 57 56 55 52 49 47 45 44 43 41 39 36 34 32 30 27
27 27 28 29 30 30 31 31 33 34 35 36 37 39 41 43 45 48 50 53 55 57 58 58 58 57 56 55 53 51 48 45 43 42 40 39 37 35 33 30 28 26 23
27 27 28 28 29 30 31 32 33 34 35 36 38 40 42 44 47 50 52 55 57 58 57 57 56 55 54 52 50 47 44 42 40 39 37 35 33 31 29 27 24 21 19
26 27 27 28 29 30 31 32 33 34 36 37 39 42 44 46 49 51 54 56 57 57 56 55 54 53 51 49 47 43 41 38 37 36 34 32 31 28 26 23 20 18 15
26 27 27 28 29 30 32 33 34 36 37 39 41 43 46 48 50 53 55 57 57 56 54 53 52 50 48 45 41 39 37 35 34 33 31 30 28 25 22 20 18 15 13
26 27 28 29 30 31 33 34 35 37 39 40 42 45 47 49 52 55 56 57 55 54 52 50 49 47 44 40 38 37 35 33 32 31 29 28 25 23 20 18 16 13 12
26 27 28 30 31 32 33 35 36 38 40 41 44 46 49 51 54 56 56 55 53 51 49 47 45 43 40 38 36 34 33 31 30 28 27 26 23 21 18 16 14 12 10
Wind_Direction
256 258 259 261 263 265 267 269 270 272 274 275 277 279 281 283 284 286 288 289 289 290 291 294 295 296 297 298 299 300 301 302 303 303 303 303 303 303 303 302 301 301 300
255 257 258 260 263 265 267 268 270 272 274 275 277 279 281 283 285 287 288 289 291 292 293 294 295 296 297 298 299 301 302 302 303 303 303 303 303 303 303 302 302 301 300
254 256 258 260 263 265 267 269 270 272 274 275 277 279 281 283 285 288 289 291 292 293 294 294 295 296 297 298 299 301 302 302 303 303 303 303 303 303 303 302 302 301 301
252 255 257 260 262 264 266 268 270 272 273 275 277 279 282 284 286 288 290 292 293 294 295 295 296 297 297 299 300 301 302 302 303 303 304 304 304 303 303 303 302 302 301
253 255 257 260 262 264 266 268 270 271 273 276 278 280 283 286 287 289 290 292 294 294 295 296 296 297 298 300 301 301 302 302 303 303 304 304 304 304 303 303 303 302 302
252 255 257 259 262 264 266 268 270 272 274 276 279 281 284 286 288 289 291 292 294 295 295 296 297 298 299 300 301 302 302 302 303 303 304 304 304 304 304 304 304 303 303
252 254 256 259 262 264 266 268 270 272 275 277 280 282 284 286 288 290 291 293 294 295 296 297 298 299 299 300 301 302 302 303 303 304 305 305 305 305 304 304 304 304 304
252 254 257 259 262 265 267 269 271 273 276 279 281 283 285 287 288 290 291 293 294 295 296 297 298 299 300 301 302 302 303 304 304 305 306 306 306 305 305 305 305 305 305
251 254 257 260 263 266 268 270 272 274 277 280 282 284 286 288 289 291 293 295 295 296 297 298 299 300 301 301 302 303 304 304 305 305 306 306 306 306 306 306 306 306 306
252 255 258 261 264 267 269 271 273 276 279 281 283 285 287 289 291 293 294 295 296 297 298 299 300 301 302 302 303 304 305 305 305 306 306 306 306 306 306 307 307 307 308
253 255 258 261 265 268 270 272 275 278 280 283 285 287 288 290 292 294 295 296 297 298 299 300 301 302 303 304 305 305 306 306 306 306 307 306 307 307 307 307 308 308 309
253 255 258 262 266 269 271 274 277 280 282 284 286 288 290 292 293 295 296 297 299 300 301 302 303 304 304 305 306 306 307 307 308 308 308 307 308 308 308 308 309 309 309
253 256 260 263 267 270 273 276 279 281 283 286 288 290 291 293 295 296 297 298 300 301 302 303 304 305 306 307 307 308 308 309 309 309 309 309 309 309 309 309 309 309 309
253 257 260 264 268 271 275 277 280 282 285 287 289 291 293 294 296 297 299 300 302 303 304 305 305 306 308 308 309 309 309 310 310 310 311 310 310 310 310 310 310 310 310
254 258 262 266 270 273 276 279 281 284 286 288 291 293 294 296 297 299 301 302 303 305 306 306 307 308 309 309 309 310 310 311 311 311 311 311 311 311 311 311 312 312 311
255 260 265 269 271 274 277 280 283 285 287 290 293 294 296 298 299 301 302 303 305 306 307 307 308 309 310 310 310 311 311 311 312 312 312 312 312 313 313 313 313 313 312
258 262 266 270 273 275 278 281 284 287 289 292 294 295 297 299 301 302 304 305 307 308 309 309 310 311 311 311 312 312 312 312 312 312 313 312 313 313 313 313 314 314 313
260 264 267 271 274 277 280 283 286 288 291 293 295 297 299 300 302 304 306 308 309 310 310 311 312 312 312 313 313 313 312 312 312 313 313 313 313 314 314 314 314 314 314
261 265 268 272 275 278 282 285 287 290 292 294 296 298 300 302 304 306 308 310 311 312 312 313 313 313 313 314 314 314 314 313 313 313 313 314 314 315 315 315 314 314 314
262 266 269 273 277 280 283 286 289 291 294 295 297 300 302 304 306 308 309 311 312 313 313 314 314 314 314 315 315 316 315 315 314 314 314 315 316 317 318 316 315 315 315
264 268 271 275 279 282 285 287 290 293 295 297 299 301 303 306 308 309 311 313 314 314 315 315 315 315 315 316 316 316 316 316 316 316 317 317 318 319 319 318 317 316 316
265 270 273 277 280 283 286 290 293 295 297 299 301 303 306 307 309 311 312 314 315 315 315 316 315 316 316 317 317 317 317 316 317 318 319 319 320 320 321 321 320 320 320
267 271 275 278 282 285 289 292 294 296 299 300 303 305 307 309 311 312 314 315 316 316 316 315 316 316 317 317 317 317 317 317 318 319 320 321 321 321 321 322 323 323 322
270 274 278 281 284 288 291 293 295 298 300 302 305 307 309 310 312 313 315 316 316 316 315 316 316 317 317 318 318 318 318 318 319 320 321 321 322 321 321 321 322 322 322
272 276 280 283 287 290 293 295 297 299 302 304 306 308 310 312 313 314 316 316 316 316 316 316 316 316 317 317 317 317 317 318 318 320 321 322 322 320 319 319 319 319 319
274 279 283 286 290 292 294 296 298 301 304 306 308 310 311 313 314 315 316 316 316 316 316 316 316 316 316 316 316 316 317 317 317 318 319 321 320 320 318 316 315 314 313